Time,TemperatureF,DewpointF,PressureIn,WindDirection,WindDirectionDegrees,WindSpeedMPH,WindSpeedGustMPH,Humidity,HourlyPrecipIn,Conditions,Clouds,dailyrainin,SoftwareType,DateUTC
2013-12-03 00:00:00,53.4,53.4,30.07,NNE,15,0.0,14.0,100,0.00,,,0.26,Wunderground v.1.15,2013-12-03 10:00:00,
2013-12-03 00:05:00,53.4,53.4,30.07,NNE,15,0.0,14.0,100,0.00,,,0.00,Wunderground v.1.15,2013-12-03 10:05:00,
2013-12-03 00:10:00,53.5,53.5,30.07,NNE,15,0.0,14.0,100,0.00,,,0.00,Wunderground v.1.15,2013-12-03 10:10:00,
2013-12-03 00:15:00,53.5,53.5,30.07,NNE,15,0.0,14.0,100,0.00,,,0.00,Wunderground v.1.15,2013-12-03 10:15:00,
2013-12-03 00:25:00,53.4,53.4,30.07,NNE,15,0.0,14.0,100,0.00,,,0.00,Wunderground v.1.15,2013-12-03 10:25:00,
2013-12-03 00:30:00,53.5,53.5,30.07,NNE,15,0.0,14.0,100,0.00,,,0.00,Wunderground v.1.15,2013-12-03 10:30:00,
2013-12-03 00:35:00,53.7,53.7,30.07,NNE,15,0.0,14.0,100,0.00,,,0.00,Wunderground v.1.15,2013-12-03 10:35:00,
2013-12-03 00:40:00,53.9,53.9,30.07,NNE,15,0.0,14.0,100,0.00,,,0.00,Wunderground v.1.15,2013-12-03 10:40:00,
2013-12-03 00:45:00,54.1,54.1,30.06,NNE,15,0.0,14.0,100,0.00,,,0.00,Wunderground v.1.15,2013-12-03 10:45:00,
2013-12-03 00:50:00,54.4,54.4,30.06,NNE,15,0.0,14.0,100,0.00,,,0.00,Wunderground v.1.15,2013-12-03 10:50:00,
2013-12-03 00:55:00,54.5,54.5,30.06,NNE,15,0.0,14.0,100,0.00,,,0.00,Wunderground v.1.15,2013-12-03 10:55:00,
2013-12-03 01:00:00,54.6,54.6,30.06,NNE,15,0.0,14.0,100,0.00,,,0.01,Wunderground v.1.15,2013-12-03 11:00:00,
2013-12-03 01:10:00,54.5,54.5,30.06,NNE,15,0.0,14.0,100,0.00,,,0.01,Wunderground v.1.15,2013-12-03 11:10:00,
2013-12-03 01:15:00,54.4,54.4,30.06,NNE,15,0.0,14.0,100,0.00,,,0.01,Wunderground v.1.15,2013-12-03 11:15:00,
2013-12-03 01:20:00,54.4,54.4,30.06,NNE,15,0.0,14.0,100,0.00,,,0.01,Wunderground v.1.15,2013-12-03 11:20:00,
2013-12-03 01:30:00,54.4,54.4,30.06,NNE,15,0.0,14.0,100,0.00,,,0.01,Wunderground v.1.15,2013-12-03 11:30:00,
2013-12-03 01:35:00,54.4,54.4,30.06,NNE,15,0.0,14.0,100,0.00,,,0.01,Wunderground v.1.15,2013-12-03 11:35:00,
2013-12-03 01:40:00,54.3,54.3,30.06,NNE,15,0.0,14.0,100,0.00,,,0.01,Wunderground v.1.15,2013-12-03 11:40:00,
2013-12-03 01:45:00,53.9,53.9,30.06,NNE,15,0.0,14.0,100,0.00,,,0.01,Wunderground v.1.15,2013-12-03 11:45:00,
2013-12-03 01:50:00,53.7,53.7,30.06,NNE,15,0.0,14.0,100,0.00,,,0.01,Wunderground v.1.15,2013-12-03 11:50:00,
2013-12-03 01:55:00,53.6,53.6,30.06,NNE,15,0.0,14.0,100,0.00,,,0.01,Wunderground v.1.15,2013-12-03 11:55:00,
2013-12-03 02:05:00,53.3,53.3,30.05,NNE,15,0.0,14.0,100,0.00,,,0.01,Wunderground v.1.15,2013-12-03 12:05:00,
2013-12-03 02:15:00,53.0,53.0,30.06,NNE,15,0.0,14.0,100,0.00,,,0.01,Wunderground v.1.15,2013-12-03 12:15:00,
2013-12-03 02:20:00,53.0,53.0,30.06,NNE,15,0.0,14.0,100,0.00,,,0.01,Wunderground v.1.15,2013-12-03 12:20:00,
2013-12-03 02:25:00,53.1,53.1,30.06,NNE,15,0.0,14.0,100,0.00,,,0.01,Wunderground v.1.15,2013-12-03 12:25:00,
2013-12-03 02:30:00,52.9,52.9,30.05,NNE,15,0.0,14.0,100,0.00,,,0.01,Wunderground v.1.15,2013-12-03 12:30:00,
2013-12-03 02:35:00,53.0,53.0,30.05,NNE,15,0.0,14.0,100,0.00,,,0.01,Wunderground v.1.15,2013-12-03 12:35:00,
2013-12-03 02:40:00,53.0,53.0,30.05,NNE,15,0.0,14.0,100,0.00,,,0.01,Wunderground v.1.15,2013-12-03 12:40:00,
2013-12-03 02:45:00,53.0,53.0,30.05,NNE,15,0.0,14.0,100,0.00,,,0.01,Wunderground v.1.15,2013-12-03 12:45:00,
2013-12-03 02:50:00,53.1,53.1,30.05,NNE,15,0.0,14.0,100,0.00,,,0.01,Wunderground v.1.15,2013-12-03 12:50:00,
2013-12-03 02:55:00,53.1,53.1,30.05,NNE,15,0.0,14.0,100,0.00,,,0.01,Wunderground v.1.15,2013-12-03 12:55:00,
2013-12-03 03:00:00,53.1,53.1,30.04,NNE,15,0.0,14.0,100,0.00,,,0.01,Wunderground v.1.15,2013-12-03 13:00:00,
2013-12-03 03:10:00,53.2,53.2,30.04,NNE,15,0.0,14.0,100,0.00,,,0.01,Wunderground v.1.15,2013-12-03 13:10:00,
2013-12-03 03:15:00,53.4,53.4,30.04,NNE,15,0.0,14.0,100,0.00,,,0.01,Wunderground v.1.15,2013-12-03 13:15:00,
2013-12-03 03:25:00,53.6,53.6,30.04,NNE,15,0.0,14.0,100,0.00,,,0.01,Wunderground v.1.15,2013-12-03 13:25:00,
2013-12-03 03:30:00,53.7,53.7,30.02,NNE,15,0.0,14.0,100,0.00,,,0.01,Wunderground v.1.15,2013-12-03 13:30:00,
2013-12-03 03:35:00,54.0,54.0,30.02,NNE,15,0.0,14.0,100,0.00,,,0.01,Wunderground v.1.15,2013-12-03 13:35:00,
2013-12-03 03:45:00,54.4,54.4,30.03,NNE,15,0.0,14.0,100,0.00,,,0.01,Wunderground v.1.15,2013-12-03 13:45:00,
2013-12-03 03:50:00,54.5,54.5,30.03,NNE,15,0.0,14.0,100,0.00,,,0.01,Wunderground v.1.15,2013-12-03 13:50:00,
2013-12-03 03:55:00,54.7,54.7,30.03,NNE,15,0.0,14.0,100,0.00,,,0.01,Wunderground v.1.15,2013-12-03 13:55:00,
2013-12-03 04:00:00,54.8,54.8,30.03,NNE,15,0.0,14.0,100,0.00,,,0.01,Wunderground v.1.15,2013-12-03 14:00:00,
2013-12-03 04:05:00,54.7,54.7,30.03,NNE,15,0.0,14.0,100,0.00,,,0.01,Wunderground v.1.15,2013-12-03 14:05:00,
2013-12-03 04:10:00,54.6,54.6,30.03,NNE,15,0.0,14.0,100,0.00,,,0.01,Wunderground v.1.15,2013-12-03 14:10:00,
2013-12-03 04:15:00,54.6,54.6,30.03,NNE,15,0.0,14.0,100,0.00,,,0.01,Wunderground v.1.15,2013-12-03 14:15:00,
2013-12-03 04:20:00,54.8,54.8,30.03,NNE,15,0.0,14.0,100,0.00,,,0.01,Wunderground v.1.15,2013-12-03 14:20:00,
2013-12-03 04:25:00,54.8,54.8,30.03,NNE,15,0.0,14.0,100,0.00,,,0.01,Wunderground v.1.15,2013-12-03 14:25:00,
2013-12-03 04:35:00,54.9,54.9,30.03,NNE,15,0.0,14.0,100,0.00,,,0.01,Wunderground v.1.15,2013-12-03 14:35:00,
2013-12-03 04:40:00,55.0,55.0,30.03,NNE,15,0.0,14.0,100,0.00,,,0.01,Wunderground v.1.15,2013-12-03 14:40:00,
2013-12-03 04:45:00,54.9,54.9,30.03,NNE,15,0.0,14.0,100,0.00,,,0.01,Wunderground v.1.15,2013-12-03 14:45:00,
2013-12-03 04:55:00,55.1,55.1,30.03,NNE,15,0.0,14.0,100,0.00,,,0.01,Wunderground v.1.15,2013-12-03 14:55:00,
2013-12-03 05:00:00,55.1,55.1,30.03,NNE,15,0.0,14.0,100,0.00,,,0.01,Wunderground v.1.15,2013-12-03 15:00:00,
2013-12-03 05:05:00,55.1,55.1,30.03,NNE,15,0.0,14.0,100,0.00,,,0.01,Wunderground v.1.15,2013-12-03 15:05:00,
2013-12-03 05:10:00,55.0,55.0,30.03,NNE,15,0.0,14.0,100,0.00,,,0.01,Wunderground v.1.15,2013-12-03 15:10:00,
2013-12-03 05:15:00,55.1,55.1,30.03,NNE,15,0.0,14.0,100,0.00,,,0.01,Wunderground v.1.15,2013-12-03 15:15:00,
2013-12-03 05:25:00,55.3,55.3,30.03,NNE,15,0.0,14.0,100,0.00,,,0.01,Wunderground v.1.15,2013-12-03 15:25:00,
2013-12-03 05:30:00,55.4,55.4,30.03,NNE,15,0.0,14.0,100,0.00,,,0.01,Wunderground v.1.15,2013-12-03 15:30:00,
2013-12-03 05:40:00,55.7,55.7,30.03,NNE,15,0.0,14.0,100,0.00,,,0.01,Wunderground v.1.15,2013-12-03 15:40:00,
2013-12-03 05:45:00,55.7,55.7,30.03,NNE,15,0.0,14.0,100,0.00,,,0.01,Wunderground v.1.15,2013-12-03 15:45:00,
2013-12-03 05:50:00,55.8,55.8,30.03,NNE,15,0.0,14.0,100,0.00,,,0.01,Wunderground v.1.15,2013-12-03 15:50:00,
2013-12-03 05:55:00,55.8,55.8,30.03,NNE,15,0.0,14.0,100,0.00,,,0.01,Wunderground v.1.15,2013-12-03 15:55:00,
2013-12-03 06:00:00,55.8,55.8,30.03,NNE,15,0.0,14.0,100,0.00,,,0.01,Wunderground v.1.15,2013-12-03 16:00:00,
2013-12-03 06:05:00,55.8,55.8,30.03,NNE,15,0.0,14.0,100,0.00,,,0.01,Wunderground v.1.15,2013-12-03 16:05:00,
2013-12-03 06:10:00,55.8,55.8,30.03,NNE,15,0.0,14.0,100,0.00,,,0.01,Wunderground v.1.15,2013-12-03 16:10:00,
2013-12-03 06:15:00,55.8,55.8,30.03,NNE,15,0.0,14.0,100,0.00,,,0.01,Wunderground v.1.15,2013-12-03 16:15:00,
2013-12-03 06:20:00,55.7,55.7,30.03,NNE,15,0.0,14.0,100,0.00,,,0.01,Wunderground v.1.15,2013-12-03 16:20:00,
2013-12-03 06:25:00,55.7,55.7,30.03,NNE,15,0.0,14.0,100,0.00,,,0.01,Wunderground v.1.15,2013-12-03 16:25:00,
2013-12-03 06:35:00,55.7,55.7,30.03,NNE,15,0.0,14.0,100,0.00,,,0.01,Wunderground v.1.15,2013-12-03 16:35:00,
2013-12-03 06:40:00,55.8,55.8,30.03,NNE,15,0.0,14.0,100,0.00,,,0.01,Wunderground v.1.15,2013-12-03 16:40:00,
2013-12-03 06:50:00,55.9,55.9,30.03,NNE,15,0.0,14.0,100,0.00,,,0.01,Wunderground v.1.15,2013-12-03 16:50:00,
2013-12-03 07:00:00,56.2,56.2,30.03,NNE,15,0.0,14.0,100,0.00,,,0.01,Wunderground v.1.15,2013-12-03 17:00:00,
2013-12-03 07:10:00,56.6,56.6,30.03,NNE,15,0.0,14.0,100,0.00,,,0.02,Wunderground v.1.15,2013-12-03 17:10:00,
2013-12-03 07:20:00,56.9,56.9,30.03,NNE,15,0.0,14.0,100,0.00,,,0.02,Wunderground v.1.15,2013-12-03 17:20:00,
2013-12-03 07:25:00,57.0,57.0,30.03,NNE,15,0.0,14.0,100,0.00,,,0.02,Wunderground v.1.15,2013-12-03 17:25:00,
2013-12-03 07:30:00,57.2,57.2,30.04,NNE,15,0.0,14.0,100,0.00,,,0.03,Wunderground v.1.15,2013-12-03 17:30:00,
2013-12-03 07:35:00,57.2,57.2,30.04,NNE,15,0.0,14.0,100,0.00,,,0.03,Wunderground v.1.15,2013-12-03 17:35:00,
2013-12-03 07:45:00,57.5,57.5,30.05,NNE,15,0.0,14.0,100,0.00,,,0.03,Wunderground v.1.15,2013-12-03 17:45:00,
2013-12-03 07:50:00,57.6,57.6,30.05,NNE,15,0.0,14.0,100,0.00,,,0.04,Wunderground v.1.15,2013-12-03 17:50:00,
2013-12-03 07:55:00,57.7,57.7,30.05,NNE,15,1.0,14.0,100,0.00,,,0.04,Wunderground v.1.15,2013-12-03 17:55:00,
2013-12-03 08:00:00,57.8,57.8,30.05,North,6,1.0,1.0,100,0.06,,,0.05,Wunderground v.1.15,2013-12-03 18:00:00,
2013-12-03 08:05:00,58.1,58.1,30.05,North,0,1.0,14.0,100,0.06,,,0.05,Wunderground v.1.15,2013-12-03 18:05:00,
2013-12-03 08:15:00,58.5,58.5,30.06,North,1,1.0,14.0,100,0.04,,,0.05,Wunderground v.1.15,2013-12-03 18:15:00,
2013-12-03 08:25:00,58.6,58.6,30.06,NNW,340,1.0,2.0,100,0.04,,,0.06,Wunderground v.1.15,2013-12-03 18:25:00,
2013-12-03 08:30:00,58.6,58.6,30.06,North,2,2.0,14.0,100,0.04,,,0.07,Wunderground v.1.15,2013-12-03 18:30:00,
2013-12-03 08:35:00,58.8,58.8,30.06,North,7,1.0,14.0,100,0.04,,,0.07,Wunderground v.1.15,2013-12-03 18:35:00,
2013-12-03 08:40:00,59.0,59.0,30.06,NNE,29,1.0,14.0,100,0.04,,,0.07,Wunderground v.1.15,2013-12-03 18:40:00,
2013-12-03 08:50:00,59.0,59.0,30.07,North,9,2.0,2.0,100,0.00,,,0.07,Wunderground v.1.15,2013-12-03 18:50:00,
2013-12-03 08:55:00,59.2,59.2,30.07,NNE,32,2.0,14.0,100,0.00,,,0.08,Wunderground v.1.15,2013-12-03 18:55:00,
2013-12-03 09:00:00,59.5,59.5,30.07,North,359,1.0,14.0,100,0.00,,,0.08,Wunderground v.1.15,2013-12-03 19:00:00,
2013-12-03 09:05:00,59.5,59.5,30.07,North,2,2.0,14.0,100,0.05,,,0.09,Wunderground v.1.15,2013-12-03 19:05:00,
2013-12-03 09:10:00,59.8,59.8,30.07,North,5,2.0,2.0,100,0.05,,,0.09,Wunderground v.1.15,2013-12-03 19:10:00,
2013-12-03 09:20:00,60.0,60.0,30.06,NNE,32,1.0,14.0,100,0.00,,,0.09,Wunderground v.1.15,2013-12-03 19:20:00,
2013-12-03 09:30:00,59.7,59.7,30.06,North,6,2.0,14.0,100,0.00,,,0.10,Wunderground v.1.15,2013-12-03 19:30:00,
2013-12-03 09:35:00,59.2,59.2,30.06,North,3,3.0,14.0,100,0.00,,,0.10,Wunderground v.1.15,2013-12-03 19:35:00,
2013-12-03 09:40:00,58.8,58.8,30.06,NNE,21,4.0,4.0,100,0.00,,,0.10,Wunderground v.1.15,2013-12-03 19:40:00,
2013-12-03 09:45:00,58.3,58.3,30.07,North,2,4.0,14.0,100,0.00,,,0.10,Wunderground v.1.15,2013-12-03 19:45:00,
2013-12-03 09:50:00,57.7,57.7,30.07,NNW,329,3.0,3.0,100,0.00,,,0.10,Wunderground v.1.15,2013-12-03 19:50:00,
2013-12-03 10:00:00,57.8,57.8,30.08,NNW,336,2.0,14.0,100,0.00,,,0.11,Wunderground v.1.15,2013-12-03 20:00:00,
2013-12-03 10:05:00,57.9,57.9,30.08,ENE,65,2.0,14.0,100,0.00,,,0.11,Wunderground v.1.15,2013-12-03 20:05:00,
2013-12-03 10:10:00,57.8,57.8,30.08,NE,36,2.0,14.0,100,0.00,,,0.11,Wunderground v.1.15,2013-12-03 20:10:00,
2013-12-03 10:15:00,57.8,57.8,30.07,NNE,20,2.0,14.0,100,0.00,,,0.11,Wunderground v.1.15,2013-12-03 20:15:00,
2013-12-03 10:25:00,59.4,59.4,30.07,NE,41,2.0,14.0,100,0.00,,,0.11,Wunderground v.1.15,2013-12-03 20:25:00,
2013-12-03 10:35:00,60.7,60.7,30.06,NE,51,2.0,14.0,100,0.00,,,0.11,Wunderground v.1.15,2013-12-03 20:35:00,
2013-12-03 10:40:00,61.3,61.3,30.06,North,359,2.0,14.0,100,0.00,,,0.11,Wunderground v.1.15,2013-12-03 20:40:00,
2013-12-03 10:45:00,60.6,60.6,30.04,NNE,19,2.0,14.0,100,0.00,,,0.11,Wunderground v.1.15,2013-12-03 20:45:00,
2013-12-03 10:50:00,60.4,60.4,30.04,NNW,338,2.0,14.0,100,0.00,,,0.11,Wunderground v.1.15,2013-12-03 20:50:00,
2013-12-03 10:55:00,60.4,60.4,30.04,NNE,14,2.0,14.0,100,0.00,,,0.11,Wunderground v.1.15,2013-12-03 20:55:00,
2013-12-03 11:05:00,60.5,60.5,30.05,NW,312,1.0,14.0,100,0.00,,,0.11,Wunderground v.1.15,2013-12-03 21:05:00,
2013-12-03 11:10:00,60.5,60.5,30.05,NE,37,1.0,14.0,100,0.00,,,0.11,Wunderground v.1.15,2013-12-03 21:10:00,
2013-12-03 11:15:00,60.3,60.3,30.05,North,351,1.0,14.0,100,0.00,,,0.11,Wunderground v.1.15,2013-12-03 21:15:00,
2013-12-03 11:20:00,60.3,60.3,30.05,North,354,1.0,1.0,100,0.00,,,0.11,Wunderground v.1.15,2013-12-03 21:20:00,
2013-12-03 11:30:00,61.1,61.1,30.04,North,349,1.0,14.0,100,0.00,,,0.11,Wunderground v.1.15,2013-12-03 21:30:00,
2013-12-03 11:35:00,61.4,61.4,30.04,NNE,23,1.0,14.0,100,0.00,,,0.11,Wunderground v.1.15,2013-12-03 21:35:00,
2013-12-03 11:40:00,61.4,61.1,30.04,NNW,348,2.0,14.0,99,0.00,,,0.11,Wunderground v.1.15,2013-12-03 21:40:00,
2013-12-03 11:45:00,61.2,60.3,30.03,North,0,2.0,14.0,97,0.00,,,0.11,Wunderground v.1.15,2013-12-03 21:45:00,
2013-12-03 11:50:00,61.3,60.4,30.03,NNE,27,2.0,2.0,97,0.00,,,0.11,Wunderground v.1.15,2013-12-03 21:50:00,
2013-12-03 11:55:00,61.8,61.2,30.03,North,357,1.0,14.0,98,0.00,,,0.11,Wunderground v.1.15,2013-12-03 21:55:00,
2013-12-03 12:00:00,61.8,60.6,30.02,North,8,0.0,14.0,96,0.00,,,0.11,Wunderground v.1.15,2013-12-03 22:00:00,
2013-12-03 12:05:00,61.8,60.4,30.02,NNE,17,1.0,14.0,95,0.00,,,0.11,Wunderground v.1.15,2013-12-03 22:05:00,
2013-12-03 12:15:00,62.1,60.7,30.01,NNW,340,2.0,14.0,95,0.00,,,0.11,Wunderground v.1.15,2013-12-03 22:15:00,
2013-12-03 12:20:00,62.0,60.3,30.01,NNE,26,2.0,14.0,94,0.00,,,0.11,Wunderground v.1.15,2013-12-03 22:20:00,
2013-12-03 12:25:00,61.5,60.1,30.01,NNW,340,2.0,14.0,95,0.00,,,0.11,Wunderground v.1.15,2013-12-03 22:25:00,
2013-12-03 12:35:00,61.5,60.1,29.99,North,1,2.0,14.0,95,0.00,,,0.11,Wunderground v.1.15,2013-12-03 22:35:00,
2013-12-03 12:40:00,61.3,60.2,29.99,North,1,3.0,3.0,96,0.00,,,0.11,Wunderground v.1.15,2013-12-03 22:40:00,
2013-12-03 12:45:00,61.3,60.2,29.98,North,359,3.0,14.0,96,0.00,,,0.11,Wunderground v.1.15,2013-12-03 22:45:00,
2013-12-03 12:50:00,61.8,60.9,29.98,North,1,2.0,2.0,97,0.00,,,0.11,Wunderground v.1.15,2013-12-03 22:50:00,
2013-12-03 12:55:00,62.3,61.1,29.98,ESE,114,1.0,14.0,96,0.00,,,0.11,Wunderground v.1.15,2013-12-03 22:55:00,
2013-12-03 13:00:00,62.3,60.8,29.97,North,354,1.0,14.0,95,0.00,,,0.11,Wunderground v.1.15,2013-12-03 23:00:00,
2013-12-03 13:05:00,62.4,60.7,29.97,NW,312,2.0,14.0,94,0.00,,,0.11,Wunderground v.1.15,2013-12-03 23:05:00,
2013-12-03 13:10:00,62.3,60.2,29.97,NE,54,3.0,3.0,93,0.00,,,0.11,Wunderground v.1.15,2013-12-03 23:10:00,
2013-12-03 13:15:00,62.6,60.8,29.96,North,1,2.0,4.0,94,0.00,,,0.11,Wunderground v.1.15,2013-12-03 23:15:00,
2013-12-03 13:20:00,63.0,61.5,29.96,North,359,2.0,14.0,95,0.00,,,0.11,Wunderground v.1.15,2013-12-03 23:20:00,
2013-12-03 13:25:00,63.0,61.5,29.96,NNE,25,2.0,14.0,95,0.00,,,0.11,Wunderground v.1.15,2013-12-03 23:25:00,
2013-12-03 13:30:00,62.7,61.2,29.96,East,89,2.0,2.0,95,0.00,,,0.11,Wunderground v.1.15,2013-12-03 23:30:00,
2013-12-03 13:40:00,62.4,61.2,29.96,NE,56,3.0,3.0,96,0.00,,,0.11,Wunderground v.1.15,2013-12-03 23:40:00,
2013-12-03 13:45:00,62.5,61.3,29.95,North,0,2.0,14.0,96,0.00,,,0.11,Wunderground v.1.15,2013-12-03 23:45:00,
2013-12-03 13:55:00,62.8,61.3,29.95,NNW,346,1.0,14.0,95,0.00,,,0.11,Wunderground v.1.15,2013-12-03 23:55:00,
2013-12-03 14:00:00,62.9,61.4,29.95,NNW,347,1.0,14.0,95,0.00,,,0.11,Wunderground v.1.15,2013-12-04 00:00:00,
2013-12-03 14:05:00,62.7,61.2,29.95,North,359,2.0,14.0,95,0.00,,,0.11,Wunderground v.1.15,2013-12-04 00:05:00,
2013-12-03 14:10:00,62.5,61.0,29.95,North,1,2.0,14.0,95,0.00,,,0.11,Wunderground v.1.15,2013-12-04 00:10:00,
2013-12-03 14:15:00,62.3,60.8,29.96,North,1,2.0,14.0,95,0.00,,,0.11,Wunderground v.1.15,2013-12-04 00:15:00,
2013-12-03 14:20:00,62.1,60.7,29.96,North,1,1.0,1.0,95,0.00,,,0.11,Wunderground v.1.15,2013-12-04 00:20:00,
2013-12-03 14:25:00,62.0,60.6,29.96,North,1,0.0,14.0,95,0.00,,,0.11,Wunderground v.1.15,2013-12-04 00:25:00,
2013-12-03 14:30:00,61.7,60.5,29.97,NE,36,1.0,14.0,96,0.00,,,0.11,Wunderground v.1.15,2013-12-04 00:30:00,
2013-12-03 14:35:00,61.4,60.5,29.97,North,6,2.0,14.0,97,0.00,,,0.11,Wunderground v.1.15,2013-12-04 00:35:00,
2013-12-03 14:40:00,60.9,60.0,29.97,NNE,21,2.0,2.0,97,0.00,,,0.11,Wunderground v.1.15,2013-12-04 00:40:00,
2013-12-03 14:50:00,60.8,60.2,29.97,NNW,340,1.0,14.0,98,0.00,,,0.11,Wunderground v.1.15,2013-12-04 00:50:00,
2013-12-03 14:55:00,60.6,60.0,29.97,North,354,2.0,14.0,98,0.00,,,0.11,Wunderground v.1.15,2013-12-04 00:55:00,
2013-12-03 15:05:00,60.7,60.1,29.97,North,1,1.0,14.0,98,0.00,,,0.11,Wunderground v.1.15,2013-12-04 01:05:00,
2013-12-03 15:10:00,60.6,59.7,29.97,North,355,2.0,2.0,97,0.00,,,0.11,Wunderground v.1.15,2013-12-04 01:10:00,
2013-12-03 15:15:00,60.4,59.8,29.97,North,358,2.0,14.0,98,0.00,,,0.11,Wunderground v.1.15,2013-12-04 01:15:00,
2013-12-03 15:20:00,60.4,59.8,29.97,NNE,14,1.0,14.0,98,0.00,,,0.11,Wunderground v.1.15,2013-12-04 01:20:00,
2013-12-03 15:25:00,60.4,59.8,29.97,North,10,1.0,14.0,98,0.00,,,0.11,Wunderground v.1.15,2013-12-04 01:25:00,
2013-12-03 15:35:00,61.4,60.8,29.96,NNW,344,2.0,14.0,98,0.00,,,0.11,Wunderground v.1.15,2013-12-04 01:35:00,
2013-12-03 15:40:00,61.3,60.4,29.96,North,5,2.0,14.0,97,0.00,,,0.11,Wunderground v.1.15,2013-12-04 01:40:00,
2013-12-03 15:45:00,61.0,60.1,29.96,NNW,339,2.0,14.0,97,0.00,,,0.11,Wunderground v.1.15,2013-12-04 01:45:00,
2013-12-03 15:55:00,60.3,59.7,29.96,North,7,3.0,14.0,98,0.00,,,0.11,Wunderground v.1.15,2013-12-04 01:55:00,
2013-12-03 16:00:00,60.4,59.8,29.97,North,358,2.0,14.0,98,0.00,,,0.11,Wunderground v.1.15,2013-12-04 02:00:00,
2013-12-03 16:05:00,60.4,59.8,29.97,ENE,68,2.0,14.0,98,0.00,,,0.11,Wunderground v.1.15,2013-12-04 02:05:00,
2013-12-03 16:10:00,60.3,59.7,29.97,North,1,2.0,2.0,98,0.00,,,0.11,Wunderground v.1.15,2013-12-04 02:10:00,
2013-12-03 16:15:00,60.0,59.4,29.98,North,0,2.0,14.0,98,0.00,,,0.11,Wunderground v.1.15,2013-12-04 02:15:00,
2013-12-03 16:20:00,59.9,59.3,29.98,North,5,2.0,14.0,98,0.00,,,0.11,Wunderground v.1.15,2013-12-04 02:20:00,
2013-12-03 16:25:00,59.8,59.5,29.98,North,1,1.0,14.0,99,0.00,,,0.11,Wunderground v.1.15,2013-12-04 02:25:00,
2013-12-03 16:30:00,59.8,59.5,29.98,NNE,27,1.0,1.0,99,0.00,,,0.11,Wunderground v.1.15,2013-12-04 02:30:00,
2013-12-03 16:35:00,59.7,59.4,29.98,North,6,1.0,14.0,99,0.00,,,0.11,Wunderground v.1.15,2013-12-04 02:35:00,
2013-12-03 16:45:00,59.3,59.0,29.99,North,1,2.0,3.0,99,0.00,,,0.11,Wunderground v.1.15,2013-12-04 02:45:00,
2013-12-03 16:50:00,58.9,58.6,29.99,NNE,28,2.0,2.0,99,0.00,,,0.12,Wunderground v.1.15,2013-12-04 02:50:00,
2013-12-03 16:55:00,58.9,58.6,29.99,NNE,13,2.0,14.0,99,0.00,,,0.12,Wunderground v.1.15,2013-12-04 02:55:00,
2013-12-03 17:05:00,58.7,58.4,29.99,NW,316,1.0,14.0,99,0.00,,,0.12,Wunderground v.1.15,2013-12-04 03:05:00,
2013-12-03 17:10:00,58.6,58.3,29.99,NNE,21,0.0,14.0,99,0.00,,,0.12,Wunderground v.1.15,2013-12-04 03:10:00,
2013-12-03 17:20:00,58.7,58.7,29.99,North,354,1.0,14.0,100,0.00,,,0.12,Wunderground v.1.15,2013-12-04 03:20:00,
2013-12-03 17:25:00,58.7,58.7,29.99,North,1,1.0,14.0,100,0.00,,,0.12,Wunderground v.1.15,2013-12-04 03:25:00,
2013-12-03 17:30:00,58.7,58.7,30.00,North,1,1.0,14.0,100,0.00,,,0.13,Wunderground v.1.15,2013-12-04 03:30:00,
2013-12-03 17:35:00,58.6,58.6,30.00,North,359,1.0,14.0,100,0.00,,,0.13,Wunderground v.1.15,2013-12-04 03:35:00,
2013-12-03 17:40:00,58.6,58.6,30.00,NE,53,1.0,14.0,100,0.00,,,0.13,Wunderground v.1.15,2013-12-04 03:40:00,
2013-12-03 17:45:00,58.4,58.4,30.01,North,359,1.0,14.0,100,0.00,,,0.13,Wunderground v.1.15,2013-12-04 03:45:00,
2013-12-03 17:50:00,58.4,58.4,30.01,North,359,1.0,1.0,100,0.00,,,0.13,Wunderground v.1.15,2013-12-04 03:50:00,
2013-12-03 17:55:00,58.4,58.4,30.01,NNW,348,1.0,2.0,100,0.00,,,0.13,Wunderground v.1.15,2013-12-04 03:55:00,
2013-12-03 18:00:00,58.3,58.3,30.01,NNE,13,2.0,2.0,100,0.00,,,0.13,Wunderground v.1.15,2013-12-04 04:00:00,
2013-12-03 18:05:00,58.3,58.3,30.01,North,4,2.0,14.0,100,0.00,,,0.13,Wunderground v.1.15,2013-12-04 04:05:00,
2013-12-03 18:15:00,58.3,58.3,30.02,North,4,1.0,14.0,100,0.00,,,0.13,Wunderground v.1.15,2013-12-04 04:15:00,
2013-12-03 18:25:00,58.3,58.3,30.02,NNE,13,1.0,14.0,100,0.00,,,0.13,Wunderground v.1.15,2013-12-04 04:25:00,
2013-12-03 18:30:00,58.3,58.3,30.03,North,3,2.0,14.0,100,0.00,,,0.13,Wunderground v.1.15,2013-12-04 04:30:00,
2013-12-03 18:35:00,58.2,58.2,30.03,North,359,1.0,14.0,100,0.00,,,0.14,Wunderground v.1.15,2013-12-04 04:35:00,
2013-12-03 18:40:00,58.2,58.2,30.03,North,11,1.0,14.0,100,0.00,,,0.14,Wunderground v.1.15,2013-12-04 04:40:00,
2013-12-03 18:45:00,58.2,58.2,30.03,East,99,1.0,14.0,100,0.00,,,0.14,Wunderground v.1.15,2013-12-04 04:45:00,
2013-12-03 18:50:00,58.1,58.1,30.03,NW,326,1.0,14.0,100,0.00,,,0.14,Wunderground v.1.15,2013-12-04 04:50:00,
2013-12-03 18:55:00,58.1,58.1,30.03,NNE,33,1.0,14.0,100,0.00,,,0.14,Wunderground v.1.15,2013-12-04 04:55:00,
2013-12-03 19:00:00,58.0,58.0,30.04,NE,39,1.0,14.0,100,0.00,,,0.14,Wunderground v.1.15,2013-12-04 05:00:00,
2013-12-03 19:05:00,58.0,58.0,30.04,North,1,1.0,14.0,100,0.00,,,0.14,Wunderground v.1.15,2013-12-04 05:05:00,
2013-12-03 19:10:00,58.1,58.1,30.04,NNE,30,1.0,1.0,100,0.00,,,0.14,Wunderground v.1.15,2013-12-04 05:10:00,
2013-12-03 19:15:00,58.1,58.1,30.04,ENE,58,1.0,14.0,100,0.00,,,0.14,Wunderground v.1.15,2013-12-04 05:15:00,
2013-12-03 19:20:00,58.0,58.0,30.04,North,355,1.0,14.0,100,0.00,,,0.14,Wunderground v.1.15,2013-12-04 05:20:00,
2013-12-03 19:25:00,58.1,58.1,30.04,NNE,13,1.0,14.0,100,0.00,,,0.14,Wunderground v.1.15,2013-12-04 05:25:00,
2013-12-03 19:35:00,58.0,58.0,30.04,NNE,30,1.0,14.0,100,0.00,,,0.14,Wunderground v.1.15,2013-12-04 05:35:00,
2013-12-03 19:40:00,58.0,58.0,30.04,North,0,1.0,14.0,100,0.00,,,0.14,Wunderground v.1.15,2013-12-04 05:40:00,
2013-12-03 19:45:00,57.9,57.9,30.05,NNE,13,1.0,14.0,100,0.00,,,0.14,Wunderground v.1.15,2013-12-04 05:45:00,
2013-12-03 19:50:00,58.0,58.0,30.05,North,1,2.0,2.0,100,0.00,,,0.14,Wunderground v.1.15,2013-12-04 05:50:00,
2013-12-03 19:55:00,57.9,57.9,30.05,NNE,24,2.0,3.0,100,0.00,,,0.14,Wunderground v.1.15,2013-12-04 05:55:00,
2013-12-03 20:05:00,58.0,58.0,30.05,ENE,64,2.0,14.0,100,0.00,,,0.14,Wunderground v.1.15,2013-12-04 06:05:00,
2013-12-03 20:10:00,57.9,57.9,30.05,NE,56,2.0,2.0,100,0.00,,,0.14,Wunderground v.1.15,2013-12-04 06:10:00,
2013-12-03 20:15:00,57.9,57.9,30.05,NNE,13,2.0,14.0,100,0.00,,,0.14,Wunderground v.1.15,2013-12-04 06:15:00,
2013-12-03 20:20:00,57.9,57.9,30.05,NE,34,2.0,14.0,100,0.00,,,0.14,Wunderground v.1.15,2013-12-04 06:20:00,
2013-12-03 20:30:00,57.8,57.8,30.05,North,350,2.0,2.0,100,0.00,,,0.14,Wunderground v.1.15,2013-12-04 06:30:00,
2013-12-03 20:40:00,57.6,57.6,30.05,NE,40,1.0,1.0,100,0.00,,,0.14,Wunderground v.1.15,2013-12-04 06:40:00,
2013-12-03 20:45:00,57.5,57.5,30.05,NE,40,0.0,14.0,100,0.00,,,0.14,Wunderground v.1.15,2013-12-04 06:45:00,
2013-12-03 20:50:00,57.4,57.4,30.05,NE,39,0.0,14.0,100,0.00,,,0.14,Wunderground v.1.15,2013-12-04 06:50:00,
2013-12-03 20:55:00,57.2,57.2,30.05,NE,40,0.0,14.0,100,0.00,,,0.14,Wunderground v.1.15,2013-12-04 06:55:00,
2013-12-03 21:00:00,57.1,57.1,30.05,NE,40,0.0,14.0,100,0.00,,,0.14,Wunderground v.1.15,2013-12-04 07:00:00,
2013-12-03 21:05:00,56.9,56.9,30.05,NE,40,0.0,14.0,100,0.00,,,0.14,Wunderground v.1.15,2013-12-04 07:05:00,
2013-12-03 21:10:00,56.6,56.6,30.05,NE,40,0.0,14.0,100,0.00,,,0.14,Wunderground v.1.15,2013-12-04 07:10:00,
2013-12-03 21:15:00,56.6,56.6,30.07,NE,40,0.0,14.0,100,0.00,,,0.14,Wunderground v.1.15,2013-12-04 07:15:00,
2013-12-03 21:20:00,56.7,56.7,30.07,NE,39,0.0,14.0,100,0.00,,,0.14,Wunderground v.1.15,2013-12-04 07:20:00,
2013-12-03 21:25:00,56.7,56.7,30.07,NE,40,0.0,14.0,100,0.00,,,0.14,Wunderground v.1.15,2013-12-04 07:25:00,
2013-12-03 21:30:00,56.8,56.8,30.07,NE,40,0.0,14.0,100,0.00,,,0.14,Wunderground v.1.15,2013-12-04 07:30:00,
2013-12-03 21:40:00,56.7,56.7,30.07,NE,39,0.0,14.0,100,0.00,,,0.14,Wunderground v.1.15,2013-12-04 07:40:00,
2013-12-03 21:50:00,56.7,56.7,30.08,NE,39,0.0,14.0,100,0.00,,,0.14,Wunderground v.1.15,2013-12-04 07:50:00,
2013-12-03 21:55:00,56.6,56.6,30.08,NE,40,0.0,14.0,100,0.00,,,0.14,Wunderground v.1.15,2013-12-04 07:55:00,
2013-12-03 22:00:00,56.6,56.6,30.07,NE,40,0.0,14.0,100,0.00,,,0.14,Wunderground v.1.15,2013-12-04 08:00:00,
2013-12-03 22:05:00,56.6,56.6,30.07,NE,40,0.0,14.0,100,0.00,,,0.14,Wunderground v.1.15,2013-12-04 08:05:00,
2013-12-03 22:10:00,56.6,56.6,30.07,NE,39,0.0,14.0,100,0.00,,,0.14,Wunderground v.1.15,2013-12-04 08:10:00,
2013-12-03 22:20:00,56.6,56.6,30.05,NE,39,0.0,14.0,100,0.00,,,0.14,Wunderground v.1.15,2013-12-04 08:20:00,
2013-12-03 22:25:00,56.6,56.6,30.05,NE,40,0.0,14.0,100,0.00,,,0.14,Wunderground v.1.15,2013-12-04 08:25:00,
2013-12-03 22:30:00,56.6,56.6,30.06,NE,40,0.0,14.0,100,0.00,,,0.14,Wunderground v.1.15,2013-12-04 08:30:00,
2013-12-03 22:35:00,56.6,56.6,30.06,NE,40,0.0,14.0,100,0.00,,,0.14,Wunderground v.1.15,2013-12-04 08:35:00,
2013-12-03 22:45:00,56.6,56.6,30.06,NE,40,0.0,14.0,100,0.00,,,0.14,Wunderground v.1.15,2013-12-04 08:45:00,
2013-12-03 22:50:00,56.7,56.7,30.06,NE,39,0.0,14.0,100,0.00,,,0.14,Wunderground v.1.15,2013-12-04 08:50:00,
2013-12-03 23:00:00,56.7,56.7,30.06,NE,39,0.0,14.0,100,0.00,,,0.15,Wunderground v.1.15,2013-12-04 09:00:00,
2013-12-03 23:05:00,56.6,56.6,30.06,NE,40,0.0,14.0,100,0.00,,,0.15,Wunderground v.1.15,2013-12-04 09:05:00,
2013-12-03 23:10:00,56.6,56.6,30.06,NE,39,0.0,14.0,100,0.08,,,0.16,Wunderground v.1.15,2013-12-04 09:10:00,
2013-12-03 23:15:00,56.6,56.6,30.06,NE,40,1.0,14.0,100,0.14,,,0.17,Wunderground v.1.15,2013-12-04 09:15:00,
2013-12-03 23:20:00,56.7,56.7,30.06,NE,46,1.0,1.0,100,0.09,,,0.18,Wunderground v.1.15,2013-12-04 09:20:00,
2013-12-03 23:30:00,56.8,56.8,30.05,NE,37,0.0,14.0,100,0.09,,,0.20,Wunderground v.1.15,2013-12-04 09:30:00,
2013-12-03 23:35:00,56.6,56.6,30.05,NNW,336,1.0,14.0,100,0.09,,,0.20,Wunderground v.1.15,2013-12-04 09:35:00,
2013-12-03 23:40:00,56.3,56.3,30.05,North,359,1.0,1.0,100,0.09,,,0.21,Wunderground v.1.15,2013-12-04 09:40:00,
2013-12-03 23:45:00,56.1,56.1,30.05,North,359,1.0,14.0,100,0.07,,,0.21,Wunderground v.1.15,2013-12-04 09:45:00,
2013-12-03 23:55:00,56.1,56.1,30.05,North,359,0.0,14.0,100,0.00,,,0.21,Wunderground v.1.15,2013-12-04 09:55:00,